Location: Las Brisas Observatory
(38.8767°N, 105.2775°W)
Time: 04:14:48
(UTC-06:00)

ISS - Visible Passes

Search period start: 23 March 2019 00:00
Search period end: 02 April 2019 00:00
Orbit: 406 x 411 km, 51.6° (Epoch: 23 March)

Date Brightness Start Highest point End Pass type
(mag) Time Alt. Az. Time Alt. Az. Time Alt. Az.
23 Mar -1.5 21:05:10 10° WNW 21:07:44 21° NNW 21:09:02 17° N visible
24 Mar -2.1 20:13:32 10° W 20:16:30 31° NNW 20:19:30 10° NE visible
24 Mar -0.4 21:53:05 10° NNW 21:53:11 10° NNW 21:53:11 10° NNW visible
25 Mar -0.9 21:00:50 10° NW 21:02:30 13° NNW 21:04:10 10° NNE visible
26 Mar -1.2 20:08:50 10° WNW 20:11:08 17° NNW 20:13:27 10° NNE visible
28 Mar -0.9 20:04:34 10° NW 20:05:51 12° NNW 20:07:09 10° N visible
30 Mar -0.8 21:36:58 10° N 21:37:35 11° N 21:37:35 11° N visible
31 Mar -1.0 20:46:32 10° N 20:46:55 10° N 20:47:19 10° NNE visible
01 Apr -1.3 21:30:36 10° NNW 21:32:02 17° N 21:32:02 17° N visible
